When you browse on this site, cookies collect data to enhance your experience and personalize the content and advertising you see.
Visit our Privacy Policy to learn more. By continuing to use the site, you agree to this use of cookies and data.
  • In Hungary
  • List of Countries
  • For 7 days
  • Water Temperature
  • Weather Map
  • News
  • Weather Widgets
  • user-avatar
    Login

    Hourly Weather Top

    Today, 29 March, Sunday

    Time Temperature Precipitation Wind Pressure Humidity
    00:00 +24°C° 0 mm 1 mps 682 mmHg 74%
    01:00 +24°C° 0 mm 1 mps 682 mmHg 76%
    02:00 +23°C° 0 mm 1 mps 682 mmHg 76%
    03:00 +21°C° 0 mm 0 mps 682 mmHg 77%
    04:00 +21°C° 0 mm 0 mps 682 mmHg 77%
    05:00 +22°C° 0.1 mm 0 mps 682 mmHg 76%
    06:00 +22°C° 0.1 mm 0 mps 683 mmHg 76%
    07:00 +23°C° 0 mm 0 mps 684 mmHg 77%
    08:00 +24°C° 0.8 mm 0 mps 684 mmHg 75%
    09:00 +27°C° 0.8 mm 1 mps 684 mmHg 73%
    10:00 +28°C° 0.8 mm 1 mps 685 mmHg 72%
    11:00 +29°C° 0.7 mm 1 mps 684 mmHg 65%
    12:00 +31°C° 0.7 mm 1 mps 683 mmHg 57%
    13:00 +31°C° 0 mm 1 mps 683 mmHg 53%
    14:00 +31°C° 0.1 mm 1 mps 682 mmHg 52%
    15:00 +31°C° 0.1 mm 1 mps 682 mmHg 50%
    16:00 +29°C° 0.1 mm 0 mps 681 mmHg 49%
    17:00 +29°C° 0.1 mm 1 mps 681 mmHg 56%
    18:00 +28°C° 0.1 mm 1 mps 681 mmHg 64%
    19:00 +25°C° 0 mm 2 mps 681 mmHg 80%
    20:00 +25°C° 0.1 mm 2 mps 682 mmHg 80%
    21:00 +24°C° 0.1 mm 1 mps 682 mmHg 80%
    22:00 +24°C° 0.1 mm 1 mps 682 mmHg 80%
    23:00 +24°C° 0 mm 1 mps 682 mmHg 79%

    Tomorrow, 30 March, Monday

    Time Temperature Precipitation Wind Pressure Humidity
    00:00 +22°C° 0 mm 0 mps 682 mmHg 79%
    01:00 +22°C° 0 mm 0 mps 682 mmHg 78%
    02:00 +21°C° 0 mm 0 mps 681 mmHg 79%
    03:00 +21°C° 0 mm 0 mps 681 mmHg 80%
    04:00 +20°C° 0 mm 0 mps 681 mmHg 81%
    05:00 +21°C° 0 mm 0 mps 681 mmHg 79%
    06:00 +22°C° 0 mm 0 mps 682 mmHg 77%
    07:00 +22°C° 0 mm 0 mps 683 mmHg 75%
    08:00 +27°C° 0 mm 1 mps 684 mmHg 65%
    09:00 +29°C° 0 mm 1 mps 684 mmHg 55%
    10:00 +32°C° 0 mm 1 mps 685 mmHg 45%
    11:00 +32°C° 0 mm 1 mps 684 mmHg 42%
    12:00 +33°C° 0 mm 1 mps 684 mmHg 40%
    13:00 +34°C° 0 mm 1 mps 683 mmHg 38%
    14:00 +34°C° 0.1 mm 1 mps 683 mmHg 39%
    15:00 +33°C° 0.1 mm 1 mps 682 mmHg 40%
    16:00 +32°C° 0.1 mm 1 mps 681 mmHg 41%
    17:00 +30°C° 0.1 mm 1 mps 681 mmHg 49%
    18:00 +28°C° 0.1 mm 1 mps 681 mmHg 57%
    19:00 +26°C° 0.1 mm 1 mps 681 mmHg 65%
    20:00 +26°C° 0 mm 1 mps 682 mmHg 67%
    21:00 +25°C° 0 mm 1 mps 682 mmHg 69%
    22:00 +25°C° 0 mm 1 mps 683 mmHg 72%
    23:00 +25°C° 0 mm 1 mps 683 mmHg 71%

    Day after tomorrow, 31 March, Tuesday

    Time Temperature Precipitation Wind Pressure Humidity
    00:00 +23°C° 0 mm 0 mps 683 mmHg 71%
    01:00 +23°C° 0 mm 0 mps 682 mmHg 71%
    02:00 +22°C° 0 mm 0 mps 682 mmHg 71%
    03:00 +22°C° 0 mm 0 mps 682 mmHg 72%
    04:00 +22°C° 0 mm 0 mps 682 mmHg 72%
    05:00 +22°C° 0 mm 0 mps 683 mmHg 71%
    06:00 +23°C° 0 mm 0 mps 683 mmHg 71%
    07:00 +23°C° 0 mm 0 mps 684 mmHg 70%
    08:00 +27°C° 0 mm 1 mps 685 mmHg 60%
    09:00 +30°C° 0 mm 1 mps 685 mmHg 50%
    10:00 +32°C° 0 mm 1 mps 686 mmHg 40%
    11:00 +33°C° 0 mm 1 mps 685 mmHg 39%
    12:00 +34°C° 0 mm 1 mps 685 mmHg 37%
    13:00 +32°C° 0 mm 0 mps 684 mmHg 36%
    14:00 +34°C° 0 mm 1 mps 684 mmHg 37%
    15:00 +33°C° 0 mm 1 mps 683 mmHg 39%
    16:00 +33°C° 0 mm 1 mps 683 mmHg 40%
    17:00 +31°C° 0.1 mm 1 mps 683 mmHg 47%
    18:00 +29°C° 0.1 mm 1 mps 682 mmHg 55%
    19:00 +26°C° 0.1 mm 1 mps 682 mmHg 62%
    20:00 +26°C° 0 mm 1 mps 683 mmHg 65%
    21:00 +25°C° 0 mm 1 mps 683 mmHg 69%
    22:00 +25°C° 0 mm 1 mps 683 mmHg 72%
    23:00 +24°C° 0 mm 1 mps 683 mmHg 72%

    1 April, Wednesday

    Time Temperature Precipitation Wind Pressure Humidity
    00:00 +24°C° 0 mm 1 mps 683 mmHg 73%
    01:00 +24°C° 0 mm 1 mps 682 mmHg 73%
    02:00 +23°C° 0 mm 1 mps 682 mmHg 73%
    03:00 +23°C° 0 mm 1 mps 682 mmHg 73%
    04:00 +21°C° 0 mm 0 mps 682 mmHg 72%
    05:00 +22°C° 0 mm 0 mps 682 mmHg 69%
    06:00 +23°C° 0 mm 0 mps 683 mmHg 65%
    07:00 +24°C° 0 mm 0 mps 684 mmHg 62%
    08:00 +27°C° 0 mm 0 mps 685 mmHg 53%
    09:00 +31°C° 0 mm 1 mps 685 mmHg 44%
    10:00 +34°C° 0 mm 1 mps 686 mmHg 35%
    11:00 +34°C° 0 mm 1 mps 685 mmHg 34%
    12:00 +34°C° 0 mm 1 mps 685 mmHg 32%
    13:00 +35°C° 0 mm 1 mps 684 mmHg 31%
    14:00 +34°C° 0 mm 1 mps 683 mmHg 32%
    15:00 +33°C° 0 mm 1 mps 683 mmHg 34%
    16:00 +33°C° 0 mm 1 mps 682 mmHg 36%
    17:00 +30°C° 0 mm 1 mps 682 mmHg 42%
    18:00 +28°C° 0 mm 1 mps 682 mmHg 49%
    19:00 +26°C° 0 mm 2 mps 682 mmHg 55%
    20:00 +25°C° 0 mm 1 mps 682 mmHg 60%
    21:00 +24°C° 0 mm 1 mps 683 mmHg 64%
    22:00 +23°C° 0 mm 1 mps 683 mmHg 68%
    23:00 +23°C° 0 mm 1 mps 683 mmHg 69%

    2 April, Thursday

    Time Temperature Precipitation Wind Pressure Humidity
    00:00 +22°C° 0 mm 1 mps 682 mmHg 70%
    01:00 +22°C° 0 mm 1 mps 682 mmHg 71%
    02:00 +22°C° 0 mm 1 mps 682 mmHg 68%
    03:00 +22°C° 0 mm 1 mps 682 mmHg 65%
    04:00 +21°C° 0 mm 1 mps 682 mmHg 62%
    05:00 +22°C° 0 mm 1 mps 683 mmHg 59%
    06:00 +21°C° 0 mm 0 mps 683 mmHg 57%
    07:00 +22°C° 0 mm 0 mps 684 mmHg 54%
    08:00 +27°C° 0 mm 1 mps 685 mmHg 47%
    09:00 +30°C° 0 mm 1 mps 685 mmHg 39%
    10:00 +33°C° 0 mm 1 mps 686 mmHg 32%
    11:00 +34°C° 0 mm 1 mps 685 mmHg 29%
    12:00 +36°C° 0 mm 2 mps 685 mmHg 26%
    13:00 +38°C° 0 mm 2 mps 684 mmHg 23%
    14:00 +36°C° 0 mm 2 mps 684 mmHg 26%
    15:00 +35°C° 0 mm 2 mps 683 mmHg 28%
    16:00 +33°C° 0 mm 1 mps 682 mmHg 31%
    17:00 +31°C° 0.1 mm 1 mps 682 mmHg 42%
    18:00 +29°C° 0.1 mm 1 mps 682 mmHg 54%
    19:00 +26°C° 0.1 mm 1 mps 682 mmHg 65%
    20:00 +25°C° 0.1 mm 1 mps 683 mmHg 71%
    21:00 +25°C° 0.1 mm 1 mps 683 mmHg 77%
    22:00 +24°C° 0.1 mm 1 mps 684 mmHg 83%
    23:00 +23°C° 0 mm 1 mps 683 mmHg 86%

    3 April, Friday

    Time Temperature Precipitation Wind Pressure Humidity
    00:00 +22°C° 0 mm 1 mps 683 mmHg 88%
    01:00 +22°C° 0 mm 1 mps 683 mmHg 91%
    02:00 +22°C° 0 mm 1 mps 683 mmHg 91%
    03:00 +21°C° 0 mm 1 mps 683 mmHg 92%
    04:00 +21°C° 0 mm 1 mps 683 mmHg 92%
    05:00 +22°C° 0 mm 1 mps 683 mmHg 89%
    06:00 +23°C° 0 mm 1 mps 684 mmHg 85%
    07:00 +21°C° 0 mm 0 mps 684 mmHg 82%
    08:00 +26°C° 0 mm 1 mps 685 mmHg 69%
    09:00 +29°C° 0 mm 1 mps 686 mmHg 56%
    10:00 +33°C° 0 mm 1 mps 687 mmHg 44%
    11:00 +32°C° 0.5 mm 1 mps 686 mmHg 46%
    12:00 +32°C° 0.5 mm 1 mps 685 mmHg 48%
    13:00 +32°C° 0.5 mm 1 mps 684 mmHg 49%
    14:00 +29°C° 1.3 mm 1 mps 683 mmHg 59%
    15:00 +27°C° 1.3 mm 2 mps 682 mmHg 68%
    16:00 +25°C° 1.3 mm 3 mps 682 mmHg 77%
    17:00 +24°C° 0.2 mm 2 mps 682 mmHg 80%
    18:00 +23°C° 0.2 mm 2 mps 682 mmHg 83%
    19:00 +22°C° 0.2 mm 1 mps 683 mmHg 87%
    20:00 +22°C° 0 mm 1 mps 683 mmHg 88%
    21:00 +22°C° 0 mm 1 mps 683 mmHg 90%
    22:00 +22°C° 0 mm 1 mps 684 mmHg 92%
    23:00 +22°C° 0 mm 1 mps 684 mmHg 92%
    Show more